#timestamp,LO_Frequency,Hit,StdDev 
1511593215.1,286047002.5,N
1511593216.0,286047002.5,N
1511593235.8,286047002.0,N
1511593255.6,286047002.3,N
1511593275.5,286047002.7,N
1511593295.3,286047002.7,N
1511593315.1,286047003.3,N
1511593335.9,286047004.2,N
1511593355.7,286047002.3,N
1511593375.6,286047001.8,N
1511593395.4,286047002.2,N
1511593415.2,286046999.9,N
1511593435.1,286046999.7,N
1511593436.0,286046999.7,N
1511593455.8,286047002.1,N
1511593475.7,286047002.1,N
1511593495.5,286047000.5,N
1511593515.3,286047000.7,N
1511593535.2,286047000.5,N
1511593555.0,286047000.3,N
1511593555.9,286047000.3,N
1511593575.8,286047000.7,N
1511593595.6,286047001.6,N
1511593615.4,286047002.4,N
1511593635.3,286046999.9,N
1511593655.1,286047000.7,N
1511593675.8,286046998.8,N
1511593695.7,286046999.2,N
1511593715.5,286046999.2,N
1511593735.4,286046999.3,N
1511593755.2,286046998.2,N
1511593775.0,286046999.5,N
1511593775.9,286046999.5,N
1511593795.8,286046996.9,N
1511593815.6,286047001.0,N
1511593835.4,286047000.3,N
1511593855.3,286047001.6,N
1511593875.1,286047002.7,N
1511593895.9,286047001.4,N
1511593915.7,286047001.9,N
1511593935.5,286047003.6,N
1511593955.4,286047001.5,N
1511593975.2,286047001.6,N
1511593995.0,286047004.2,N
1511593995.9,286047004.2,N
1511594015.8,286047002.7,N
1511594035.6,286047000.2,N
1511594055.5,286047002.8,N
1511594075.3,286047002.5,N
1511594095.1,286047002.4,N
1511594115.9,286047002.7,N
1511594135.7,286047000.1,N
1511594155.6,286047000.5,N
1511594175.4,286047000.8,N
1511594195.2,286046998.9,N
1511594215.1,286046998.8,N
1511594216.0,286046998.8,N
1511594235.8,286046998.5,N
1511594255.6,286047000.4,N
1511594275.5,286047002.1,N
1511594295.3,286047002.2,N
1511594315.2,286047001.9,N
1511594335.9,286047004.3,N
1511594355.7,286047003.7,N
1511594375.6,286047003.7,N
1511594395.4,286047001.4,N
1511594415.2,286047001.6,N
1511594435.1,286047001.6,N
1511594436.0,286047001.6,N
1511594455.8,286047000.1,N
1511594475.7,286046999.8,N
1511594495.5,286046999.9,N
1511594515.3,286047000.0,N
1511594535.2,286047002.0,N
1511594555.0,286047002.1,N
1511594555.9,286047002.1,N
1511594575.8,286047003.5,N
1511594595.6,286047004.1,N
1511594615.4,286047001.9,N
1511594635.3,286047001.4,N
1511594655.1,286047001.4,N
1511594675.8,286047002.8,N
1511594695.7,286047000.2,N
1511594715.5,286046999.8,N
1511594735.4,286046999.7,N
1511594755.2,286047002.2,N
1511594775.0,286047004.4,N
1511594775.9,286047004.4,N
1511594795.8,286047001.7,N
1511594815.6,286047003.8,N
1511594835.4,286047004.3,N
1511594855.3,286047004.4,N
1511594875.1,286047004.2,N
1511594895.9,286047001.7,N
1511594915.7,286047001.5,N
1511594935.5,286047003.9,N
1511594955.4,286047003.4,N
1511594975.2,286047003.0,N
1511594995.0,286047003.2,N
1511594996.0,286047003.2,N
1511595015.8,286047004.0,N
1511595035.6,286047003.5,N
1511595055.5,286047005.7,Y
1511595075.3,286047001.7,P
1511595095.1,286047001.6,P
1511595115.9,286047000.2,N
1511595135.7,286046998.4,N
1511595155.6,286046996.9,N
1511595175.4,286046996.6,N
1511595195.2,286046997.7,N
1511595215.1,286046995.0,N
1511595216.0,286046995.0,N
1511595235.8,286046996.9,N
1511595255.7,286046998.5,N
1511595275.5,286047000.6,N
1511595295.3,286047001.2,N
1511595315.2,286046998.4,N
1511595335.0,286047000.3,N
1511595335.9,286047000.3,N
1511595355.7,286046998.1,N
1511595375.6,286046998.4,N
1511595395.4,286047001.0,N
1511595415.3,286047000.3,N
1511595435.1,286046998.2,N
1511595436.0,286046998.2,N
1511595455.8,286047000.9,N
1511595475.7,286047002.7,N
1511595495.5,286046999.8,N
1511595515.3,286047002.4,N
1511595535.2,286047000.2,N
1511595555.0,286046999.9,N
1511595555.9,286046999.9,N
1511595575.8,286046999.8,N
1511595595.6,286047000.5,N
1511595615.4,286046998.8,N
1511595635.3,286046996.7,N
1511595655.1,286046999.0,N
1511595675.9,286047000.4,N
1511595695.7,286047000.6,N
1511595715.5,286046999.9,N
1511595735.4,286047001.9,N
1511595755.2,286047003.7,N
1511595775.0,286047001.6,N
1511595775.9,286047001.6,N
1511595795.8,286047002.7,N
1511595815.6,286047000.1,N
1511595835.5,286047000.2,N
1511595855.3,286047002.2,N
1511595875.1,286047000.1,N
1511595895.9,286047002.3,N
1511595915.7,286047001.6,N
1511595935.5,286047002.6,N
1511595955.4,286047000.4,N
1511595975.2,286046999.8,N
1511595995.1,286047001.4,N
1511595996.0,286047001.4,N
1511596015.8,286047002.7,N
1511596035.6,286047002.8,N
1511596055.5,286047000.3,N
1511596075.3,286047002.8,N
1511596095.1,286047002.7,N
1511596115.9,286047002.4,N
1511596135.7,286047002.7,N
1511596155.6,286047002.7,N
1511596175.4,286047002.5,N
1511596195.2,286047000.0,N
1511596215.1,286046999.9,N
1511596216.0,286046999.9,N
1511596235.8,286046999.8,N
1511596255.6,286046999.7,N
1511596275.5,286047004.3,Y
1511596295.3,286047002.4,P
1511596315.2,286047000.0,N
1511596335.9,286047001.1,N
1511596355.7,286047002.5,N
1511596375.6,286046999.7,N
1511596395.4,286047000.7,N
1511596415.3,286047000.4,N
1511596435.1,286047001.0,N
1511596436.0,286047001.0,N
1511596455.8,286047001.1,N
1511596475.7,286047000.8,N
1511596495.5,286047001.2,N
1511596515.3,286046999.9,N
1511596535.2,286047000.3,N
1511596555.0,286047000.9,N
1511596555.9,286047000.9,N
1511596575.8,286047002.4,Y
1511596595.6,286047000.8,P
1511596615.4,286047001.2,P
1511596635.3,286047001.0,P
1511596655.1,286046998.6,Y
1511596675.9,286046998.1,P
1511596695.7,286047000.6,N
1511596715.5,286046998.5,N
1511596735.4,286046998.4,N
1511596755.2,286046999.3,N
1511596775.0,286046998.6,N
1511596775.9,286046998.6,N
1511596795.8,286047000.8,N
